When you browse on this site, cookies collect data to enhance your experience and personalize the content and advertising you see.
Visit our Privacy Policy to learn more. By continuing to use the site, you agree to this use of cookies and data.
  • In Latvia
  • List of Countries
  • For 7 days
  • Water Temperature
  • Weather Map
  • Weather Widgets
  • user-avatar
    Login

    Hourly Weather Nyiregyhaza

    Today, 26 January, Sunday

    Time Temperature Precipitation Wind Pressure Humidity
    00:00 -1°C° 0 mm 0 mps 758 mmHg 78%
    01:00 -1°C° 0 mm 0 mps 758 mmHg 78%
    02:00 0°C° 0 mm 1 mps 758 mmHg 79%
    03:00 0°C° 0 mm 1 mps 758 mmHg 80%
    04:00 0°C° 0 mm 1 mps 758 mmHg 80%
    05:00 0°C° 0 mm 1 mps 758 mmHg 81%
    06:00 0°C° 0 mm 1 mps 758 mmHg 82%
    07:00 0°C° 0 mm 1 mps 758 mmHg 80%
    08:00 +1°C° 0 mm 1 mps 758 mmHg 76%
    09:00 +1°C° 0 mm 1 mps 758 mmHg 72%
    10:00 +2°C° 0 mm 1 mps 758 mmHg 69%
    11:00 +2°C° 0 mm 0 mps 758 mmHg 69%
    12:00 +2°C° 0 mm 0 mps 757 mmHg 69%
    13:00 +2°C° 0 mm 0 mps 757 mmHg 69%
    14:00 +2°C° 0 mm 0 mps 757 mmHg 71%
    15:00 +2°C° 0 mm 0 mps 757 mmHg 73%
    16:00 +2°C° 0 mm 0 mps 757 mmHg 75%
    17:00 +2°C° 0 mm 0 mps 756 mmHg 76%
    18:00 +1°C° 0 mm 0 mps 756 mmHg 77%
    19:00 +1°C° 0 mm 0 mps 756 mmHg 77%
    20:00 +1°C° 0 mm 0 mps 756 mmHg 78%
    21:00 +2°C° 0 mm 1 mps 756 mmHg 78%
    22:00 +2°C° 0 mm 1 mps 756 mmHg 78%
    23:00 +2°C° 0 mm 1 mps 755 mmHg 79%

    Tomorrow, 27 January, Monday

    Time Temperature Precipitation Wind Pressure Humidity
    00:00 +2°C° 0 mm 1 mps 755 mmHg 79%
    01:00 +3°C° 0 mm 1 mps 755 mmHg 79%
    02:00 +3°C° 0 mm 1 mps 755 mmHg 80%
    03:00 +2°C° 0 mm 1 mps 754 mmHg 81%
    04:00 +2°C° 0 mm 1 mps 754 mmHg 82%
    05:00 +2°C° 0 mm 1 mps 754 mmHg 83%
    06:00 +2°C° 0 mm 1 mps 754 mmHg 84%
    07:00 +2°C° 0 mm 1 mps 754 mmHg 85%
    08:00 +3°C° 0 mm 1 mps 754 mmHg 84%
    09:00 +3°C° 0 mm 1 mps 754 mmHg 83%
    10:00 +4°C° 0 mm 1 mps 754 mmHg 81%
    11:00 +4°C° 0 mm 1 mps 753 mmHg 82%
    12:00 +3°C° 0 mm 0 mps 753 mmHg 82%
    13:00 +3°C° 0 mm 0 mps 753 mmHg 83%
    14:00 +3°C° 0 mm 0 mps 753 mmHg 85%
    15:00 +2°C° 0 mm 0 mps 753 mmHg 86%
    16:00 +2°C° 0 mm 0 mps 753 mmHg 88%
    17:00 +2°C° 0 mm 0 mps 752 mmHg 88%
    18:00 +1°C° 0 mm 0 mps 752 mmHg 89%
    19:00 +1°C° 0 mm 0 mps 752 mmHg 89%
    20:00 +2°C° 0 mm 1 mps 752 mmHg 89%
    21:00 +2°C° 0 mm 1 mps 752 mmHg 89%
    22:00 +2°C° 0 mm 1 mps 752 mmHg 89%
    23:00 +2°C° 0 mm 1 mps 752 mmHg 90%

    Day after tomorrow, 28 January, Tuesday

    Time Temperature Precipitation Wind Pressure Humidity
    00:00 +1°C° 0 mm 1 mps 752 mmHg 91%
    01:00 -1°C° 0 mm 2 mps 751 mmHg 91%
    02:00 -1°C° 0 mm 2 mps 751 mmHg 92%
    03:00 -1°C° 0 mm 2 mps 751 mmHg 93%
    04:00 -1°C° 0 mm 2 mps 750 mmHg 94%
    05:00 -1°C° 0 mm 2 mps 750 mmHg 95%
    06:00 -1°C° 0 mm 2 mps 750 mmHg 95%
    07:00 -1°C° 0 mm 2 mps 749 mmHg 95%
    08:00 +1°C° 0 mm 2 mps 749 mmHg 93%
    09:00 +1°C° 0 mm 3 mps 749 mmHg 91%
    10:00 +2°C° 0 mm 3 mps 748 mmHg 89%
    11:00 +1°C° 0.1 mm 4 mps 747 mmHg 90%
    12:00 +3°C° 0.1 mm 4 mps 746 mmHg 91%
    13:00 +2°C° 0.1 mm 5 mps 745 mmHg 91%
    14:00 +2°C° 1.6 mm 5 mps 745 mmHg 92%
    15:00 +2°C° 1.6 mm 6 mps 744 mmHg 94%
    16:00 +2°C° 1.6 mm 6 mps 743 mmHg 95%
    17:00 +3°C° 1.3 mm 6 mps 743 mmHg 94%
    18:00 +3°C° 1.3 mm 5 mps 742 mmHg 94%
    19:00 +3°C° 1.3 mm 5 mps 741 mmHg 94%
    20:00 +3°C° 1.8 mm 5 mps 741 mmHg 93%
    21:00 +3°C° 1.8 mm 5 mps 740 mmHg 93%
    22:00 +3°C° 1.8 mm 5 mps 739 mmHg 93%
    23:00 +3°C° 0.1 mm 5 mps 739 mmHg 93%

    29 January, Wednesday

    Time Temperature Precipitation Wind Pressure Humidity
    00:00 +2°C° 0.1 mm 5 mps 739 mmHg 93%
    01:00 +2°C° 0.1 mm 5 mps 738 mmHg 92%
    02:00 +1°C° 0.4 mm 5 mps 739 mmHg 91%
    03:00 +1°C° 0.4 mm 5 mps 739 mmHg 89%
    04:00 +1°C° 0.4 mm 5 mps 740 mmHg 87%
    05:00 0°C° 0.2 mm 5 mps 741 mmHg 82%
    06:00 0°C° 0.2 mm 5 mps 742 mmHg 77%
    07:00 0°C° 0.2 mm 5 mps 743 mmHg 73%
    08:00 -1°C° 0 mm 6 mps 743 mmHg 71%
    09:00 0°C° 0 mm 7 mps 744 mmHg 69%
    10:00 +1°C° 0 mm 8 mps 744 mmHg 68%
    11:00 +1°C° 0 mm 8 mps 744 mmHg 66%
    12:00 +2°C° 0 mm 8 mps 744 mmHg 65%
    13:00 +2°C° 0 mm 8 mps 744 mmHg 63%
    14:00 +3°C° 0 mm 7 mps 744 mmHg 66%
    15:00 +2°C° 0 mm 6 mps 744 mmHg 68%
    16:00 +2°C° 0 mm 6 mps 744 mmHg 70%
    17:00 +1°C° 0 mm 6 mps 744 mmHg 72%
    18:00 +1°C° 0 mm 6 mps 745 mmHg 75%
    19:00 -1°C° 0 mm 6 mps 745 mmHg 77%
    20:00 -1°C° 0 mm 6 mps 745 mmHg 78%
    21:00 -1°C° 0 mm 6 mps 745 mmHg 79%
    22:00 -1°C° 0 mm 6 mps 746 mmHg 80%
    23:00 -1°C° 0 mm 5 mps 746 mmHg 82%

    30 January, Thursday

    Time Temperature Precipitation Wind Pressure Humidity
    00:00 -1°C° 0 mm 4 mps 746 mmHg 85%
    01:00 -1°C° 0 mm 4 mps 746 mmHg 88%
    02:00 -1°C° 0 mm 4 mps 747 mmHg 85%
    03:00 -1°C° 0 mm 5 mps 747 mmHg 82%
    04:00 -1°C° 0 mm 5 mps 747 mmHg 80%
    05:00 -1°C° 0 mm 5 mps 748 mmHg 80%
    06:00 -1°C° 0 mm 4 mps 748 mmHg 80%
    07:00 -1°C° 0 mm 4 mps 748 mmHg 80%
    08:00 0°C° 0 mm 4 mps 749 mmHg 77%
    09:00 +1°C° 0 mm 4 mps 750 mmHg 74%
    10:00 +2°C° 0 mm 3 mps 750 mmHg 72%
    11:00 +3°C° 0 mm 3 mps 750 mmHg 69%
    12:00 +4°C° 0 mm 3 mps 750 mmHg 66%
    13:00 +4°C° 0 mm 3 mps 751 mmHg 63%
    14:00 +3°C° 0 mm 3 mps 751 mmHg 66%
    15:00 +3°C° 0 mm 3 mps 751 mmHg 68%
    16:00 +2°C° 0 mm 3 mps 752 mmHg 71%
    17:00 +2°C° 0 mm 2 mps 752 mmHg 74%
    18:00 +2°C° 0 mm 2 mps 752 mmHg 77%
    19:00 +1°C° 0 mm 2 mps 753 mmHg 80%
    20:00 +1°C° 0 mm 2 mps 753 mmHg 81%
    21:00 -1°C° 0 mm 2 mps 753 mmHg 83%
    22:00 -1°C° 0 mm 3 mps 753 mmHg 84%
    23:00 -1°C° 0 mm 3 mps 753 mmHg 85%

    31 January, Friday

    Time Temperature Precipitation Wind Pressure Humidity
    00:00 -1°C° 0 mm 3 mps 753 mmHg 85%
    01:00 -1°C° 0 mm 3 mps 753 mmHg 85%
    02:00 -1°C° 0 mm 3 mps 753 mmHg 84%
    03:00 -1°C° 0 mm 3 mps 753 mmHg 83%
    04:00 -1°C° 0 mm 4 mps 753 mmHg 81%
    05:00 -1°C° 0 mm 4 mps 753 mmHg 81%
    06:00 -1°C° 0 mm 4 mps 753 mmHg 80%
    07:00 -1°C° 0 mm 4 mps 753 mmHg 79%
    08:00 -1°C° 0 mm 4 mps 753 mmHg 77%
    09:00 0°C° 0 mm 4 mps 753 mmHg 74%
    10:00 0°C° 0 mm 4 mps 753 mmHg 71%
    11:00 +1°C° 0 mm 4 mps 753 mmHg 70%
    12:00 +1°C° 0 mm 4 mps 752 mmHg 69%
    13:00 +3°C° 0 mm 4 mps 752 mmHg 68%
    14:00 +3°C° 0 mm 3 mps 752 mmHg 71%
    15:00 +3°C° 0 mm 2 mps 752 mmHg 74%
    16:00 +3°C° 0 mm 2 mps 752 mmHg 77%
    17:00 +3°C° 0 mm 2 mps 753 mmHg 79%
    18:00 +4°C° 0 mm 1 mps 753 mmHg 81%
    19:00 +3°C° 0 mm 1 mps 753 mmHg 82%
    20:00 +3°C° 0 mm 1 mps 753 mmHg 83%
    21:00 +3°C° 0 mm 1 mps 753 mmHg 84%
    22:00 +3°C° 0 mm 1 mps 753 mmHg 85%
    23:00 +3°C° 0 mm 1 mps 753 mmHg 86%
    Show more